When you browse on this site, cookies collect data to enhance your experience and personalize the content and advertising you see.
Visit our Privacy Policy to learn more. By continuing to use the site, you agree to this use of cookies and data.
  • In Denmark
  • List of Countries
  • For 7 days
  • Water Temperature
  • Weather Map
  • Weather Widgets
  • user-avatar
    Login

    Hourly Weather Altuhovo

    Today, 6 June, Saturday

    Time Temperature Precipitation Wind Pressure Humidity
    00:00 +12°C° 0 mm 2 mps 742 mmHg 97%
    01:00 +12°C° 0 mm 2 mps 742 mmHg 98%
    02:00 +12°C° 0 mm 2 mps 742 mmHg 98%
    03:00 +13°C° 0 mm 2 mps 743 mmHg 98%
    04:00 +13°C° 0 mm 2 mps 743 mmHg 97%
    05:00 +12°C° 0 mm 3 mps 743 mmHg 97%
    06:00 +14°C° 0 mm 3 mps 743 mmHg 95%
    07:00 +16°C° 0 mm 3 mps 743 mmHg 93%
    08:00 +18°C° 0 mm 4 mps 743 mmHg 91%
    09:00 +19°C° 0 mm 4 mps 743 mmHg 88%
    10:00 +20°C° 0 mm 4 mps 743 mmHg 85%
    11:00 +21°C° 0 mm 4 mps 743 mmHg 82%
    12:00 +22°C° 0 mm 4 mps 743 mmHg 79%
    13:00 +23°C° 0 mm 4 mps 743 mmHg 77%
    14:00 +25°C° 0 mm 5 mps 743 mmHg 75%
    15:00 +23°C° 0.9 mm 4 mps 743 mmHg 79%
    16:00 +22°C° 0.9 mm 3 mps 743 mmHg 84%
    17:00 +22°C° 0.9 mm 3 mps 743 mmHg 88%
    18:00 +21°C° 0.8 mm 3 mps 743 mmHg 89%
    19:00 +20°C° 0.8 mm 3 mps 743 mmHg 90%
    20:00 +19°C° 0.8 mm 3 mps 743 mmHg 92%
    21:00 +19°C° 0.4 mm 3 mps 743 mmHg 93%
    22:00 +18°C° 0.4 mm 3 mps 743 mmHg 93%
    23:00 +18°C° 0.4 mm 3 mps 743 mmHg 94%

    Tomorrow, 7 June, Sunday

    Time Temperature Precipitation Wind Pressure Humidity
    00:00 +17°C° 0 mm 2 mps 744 mmHg 94%
    01:00 +17°C° 0 mm 2 mps 744 mmHg 95%
    02:00 +16°C° 0 mm 2 mps 745 mmHg 95%
    03:00 +17°C° 0 mm 2 mps 745 mmHg 95%
    04:00 +17°C° 0 mm 2 mps 745 mmHg 95%
    05:00 +18°C° 0 mm 1 mps 745 mmHg 95%
    06:00 +20°C° 0 mm 1 mps 745 mmHg 91%
    07:00 +21°C° 0 mm 1 mps 746 mmHg 87%
    08:00 +23°C° 0 mm 1 mps 746 mmHg 83%
    09:00 +24°C° 0 mm 1 mps 746 mmHg 78%
    10:00 +25°C° 0 mm 1 mps 746 mmHg 74%
    11:00 +26°C° 0 mm 1 mps 746 mmHg 69%
    12:00 +26°C° 0 mm 1 mps 746 mmHg 67%
    13:00 +27°C° 0 mm 1 mps 746 mmHg 65%
    14:00 +27°C° 0 mm 1 mps 746 mmHg 62%
    15:00 +27°C° 0 mm 1 mps 746 mmHg 65%
    16:00 +27°C° 0 mm 1 mps 746 mmHg 68%
    17:00 +27°C° 0 mm 1 mps 746 mmHg 71%
    18:00 +25°C° 0.1 mm 1 mps 746 mmHg 75%
    19:00 +23°C° 0.1 mm 1 mps 747 mmHg 80%
    20:00 +19°C° 0.1 mm 0 mps 747 mmHg 84%
    21:00 +19°C° 0 mm 0 mps 747 mmHg 85%
    22:00 +18°C° 0 mm 0 mps 747 mmHg 86%
    23:00 +18°C° 0 mm 0 mps 747 mmHg 87%

    Day after tomorrow, 8 June, Monday

    Time Temperature Precipitation Wind Pressure Humidity
    00:00 +17°C° 0 mm 0 mps 747 mmHg 88%
    01:00 +17°C° 0 mm 0 mps 747 mmHg 88%
    02:00 +17°C° 0 mm 0 mps 747 mmHg 89%
    03:00 +17°C° 0 mm 0 mps 747 mmHg 89%
    04:00 +18°C° 0 mm 0 mps 747 mmHg 89%
    05:00 +19°C° 0 mm 0 mps 747 mmHg 89%
    06:00 +22°C° 0 mm 1 mps 747 mmHg 85%
    07:00 +23°C° 0 mm 1 mps 748 mmHg 81%
    08:00 +25°C° 0 mm 1 mps 748 mmHg 77%
    09:00 +26°C° 0 mm 1 mps 748 mmHg 74%
    10:00 +26°C° 0 mm 1 mps 748 mmHg 70%
    11:00 +27°C° 0 mm 1 mps 747 mmHg 67%
    12:00 +28°C° 0 mm 1 mps 747 mmHg 65%
    13:00 +28°C° 0 mm 1 mps 747 mmHg 64%
    14:00 +28°C° 0 mm 1 mps 747 mmHg 63%
    15:00 +28°C° 0.1 mm 1 mps 747 mmHg 66%
    16:00 +28°C° 0.1 mm 1 mps 747 mmHg 69%
    17:00 +28°C° 0.1 mm 1 mps 746 mmHg 72%
    18:00 +26°C° 0 mm 2 mps 746 mmHg 77%
    19:00 +24°C° 0 mm 2 mps 746 mmHg 81%
    20:00 +21°C° 0 mm 2 mps 746 mmHg 86%
    21:00 +21°C° 0 mm 2 mps 746 mmHg 89%
    22:00 +20°C° 0 mm 2 mps 746 mmHg 91%
    23:00 +19°C° 0 mm 2 mps 746 mmHg 94%

    9 June, Tuesday

    Time Temperature Precipitation Wind Pressure Humidity
    00:00 +19°C° 0 mm 2 mps 747 mmHg 95%
    01:00 +19°C° 0 mm 2 mps 747 mmHg 95%
    02:00 +19°C° 0 mm 2 mps 747 mmHg 96%
    03:00 +19°C° 0 mm 2 mps 747 mmHg 96%
    04:00 +19°C° 0 mm 2 mps 747 mmHg 96%
    05:00 +19°C° 0 mm 2 mps 747 mmHg 96%
    06:00 +21°C° 0.1 mm 3 mps 747 mmHg 93%
    07:00 +22°C° 0.1 mm 3 mps 747 mmHg 90%
    08:00 +23°C° 0.1 mm 4 mps 747 mmHg 87%
    09:00 +25°C° 0.2 mm 4 mps 747 mmHg 83%
    10:00 +25°C° 0.2 mm 5 mps 747 mmHg 80%
    11:00 +26°C° 0.2 mm 5 mps 747 mmHg 77%
    12:00 +26°C° 0.6 mm 5 mps 747 mmHg 77%
    13:00 +26°C° 0.6 mm 5 mps 747 mmHg 77%
    14:00 +26°C° 0.6 mm 5 mps 747 mmHg 77%
    15:00 +26°C° 0.5 mm 4 mps 747 mmHg 79%
    16:00 +26°C° 0.5 mm 4 mps 747 mmHg 81%
    17:00 +25°C° 0.5 mm 3 mps 747 mmHg 83%
    18:00 +24°C° 0.1 mm 3 mps 747 mmHg 86%
    19:00 +22°C° 0.1 mm 3 mps 747 mmHg 88%
    20:00 +21°C° 0.1 mm 3 mps 747 mmHg 91%
    21:00 +20°C° 0 mm 3 mps 747 mmHg 93%
    22:00 +20°C° 0 mm 3 mps 747 mmHg 94%
    23:00 +19°C° 0 mm 3 mps 747 mmHg 95%

    10 June, Wednesday

    Time Temperature Precipitation Wind Pressure Humidity
    00:00 +19°C° 0 mm 3 mps 747 mmHg 95%
    01:00 +18°C° 0 mm 3 mps 747 mmHg 95%
    02:00 +18°C° 0 mm 3 mps 747 mmHg 95%
    03:00 +18°C° 0 mm 3 mps 747 mmHg 95%
    04:00 +18°C° 0 mm 3 mps 747 mmHg 95%
    05:00 +19°C° 0 mm 3 mps 748 mmHg 94%
    06:00 +20°C° 0 mm 3 mps 748 mmHg 90%
    07:00 +22°C° 0 mm 3 mps 748 mmHg 87%
    08:00 +24°C° 0 mm 3 mps 747 mmHg 83%
    09:00 +25°C° 0.2 mm 3 mps 747 mmHg 81%
    10:00 +25°C° 0.2 mm 4 mps 747 mmHg 78%
    11:00 +26°C° 0.2 mm 4 mps 747 mmHg 75%
    12:00 +27°C° 0.2 mm 4 mps 747 mmHg 74%
    13:00 +27°C° 0.2 mm 4 mps 747 mmHg 74%
    14:00 +27°C° 0.2 mm 4 mps 747 mmHg 73%
    15:00 +27°C° 0.6 mm 4 mps 746 mmHg 76%
    16:00 +26°C° 0.6 mm 3 mps 746 mmHg 78%
    17:00 +26°C° 0.6 mm 3 mps 746 mmHg 81%
    18:00 +25°C° 0.7 mm 3 mps 746 mmHg 84%
    19:00 +23°C° 0.7 mm 2 mps 746 mmHg 87%
    20:00 +21°C° 0.7 mm 2 mps 746 mmHg 90%
    21:00 +21°C° 0 mm 2 mps 746 mmHg 91%
    22:00 +20°C° 0 mm 2 mps 746 mmHg 93%
    23:00 +20°C° 0 mm 2 mps 746 mmHg 94%

    11 June, Thursday

    Time Temperature Precipitation Wind Pressure Humidity
    00:00 +19°C° 0 mm 2 mps 746 mmHg 94%
    01:00 +19°C° 0 mm 2 mps 746 mmHg 94%
    02:00 +19°C° 0 mm 2 mps 746 mmHg 94%
    03:00 +19°C° 0 mm 2 mps 746 mmHg 94%
    04:00 +19°C° 0 mm 2 mps 746 mmHg 94%
    05:00 +20°C° 0 mm 2 mps 746 mmHg 94%
    06:00 +21°C° 0 mm 2 mps 746 mmHg 90%
    07:00 +24°C° 0 mm 2 mps 746 mmHg 86%
    08:00 +25°C° 0 mm 2 mps 746 mmHg 81%
    09:00 +26°C° 0 mm 2 mps 746 mmHg 77%
    10:00 +27°C° 0 mm 2 mps 745 mmHg 73%
    11:00 +28°C° 0 mm 3 mps 745 mmHg 68%
    12:00 +29°C° 0.3 mm 3 mps 745 mmHg 69%
    13:00 +29°C° 0.3 mm 3 mps 745 mmHg 69%
    14:00 +29°C° 0.3 mm 3 mps 744 mmHg 69%
    15:00 +29°C° 0.6 mm 3 mps 744 mmHg 73%
    16:00 +28°C° 0.6 mm 3 mps 744 mmHg 77%
    17:00 +28°C° 0.6 mm 3 mps 744 mmHg 80%
    18:00 +26°C° 0 mm 3 mps 744 mmHg 83%
    19:00 +25°C° 0 mm 3 mps 744 mmHg 86%
    20:00 +22°C° 0 mm 3 mps 744 mmHg 88%
    21:00 +21°C° 0 mm 2 mps 744 mmHg 90%
    22:00 +21°C° 0 mm 2 mps 744 mmHg 91%
    23:00 +20°C° 0 mm 2 mps 744 mmHg 93%
    Show more